Location: Hickory_CSC
(35.7330°N, 81.3330°W)
Time: 23:17:19
(UTC-05:00)

Cosmos 1356 Rocket - Visible Passes

Search period start: 21 December 2014 00:00
Search period end: 31 December 2014 00:00
Orbit: 548 x 606 km, 81.2° (Epoch: 20 December)

Date Brightness Start Highest point End Pass type
(mag) Time Alt. Az. Time Alt. Az. Time Alt. Az.
21 Dec 3.3 06:41:33 10° SSW 06:45:30 61° W 06:49:31 10° N visible
21 Dec 6.2 18:24:57 10° NW 18:28:15 22° W 18:31:33 10° SW visible
22 Dec 6.7 05:12:01 10° E 05:13:00 11° E 05:13:58 10° ENE visible
22 Dec 3.7 06:45:50 10° SSW 06:49:38 42° WNW 06:53:29 10° N visible
22 Dec 6.5 18:29:40 10° NW 18:32:15 16° W 18:34:50 10° SW visible
23 Dec 6.4 05:14:33 10° SE 05:16:57 16° E 05:19:23 10° NE visible
23 Dec 4.2 06:50:16 10° SW 06:53:47 29° WNW 06:57:21 10° NNW visible
23 Dec 6.9 18:34:58 10° WNW 18:36:13 11° W 18:37:28 10° WSW visible
24 Dec 5.8 05:17:50 10° SE 05:20:56 22° E 05:24:05 10° NE visible
24 Dec 4.6 06:54:52 10° SW 06:57:57 21° WNW 07:01:04 10° NNW visible
25 Dec 5.2 05:21:23 10° SSE 05:24:56 31° E 05:28:32 10° NNE visible
25 Dec 4.9 06:59:45 10° WSW 07:02:08 15° WNW 07:04:33 10° NW visible
26 Dec 4.4 05:25:07 10° SSE 05:28:57 45° E 05:32:51 10° NNE visible
26 Dec 5.3 07:05:21 10° W 07:06:21 11° WNW 07:07:21 10° NW visible
27 Dec 3.6 05:29:00 10° S 05:32:59 67° E 05:37:03 10° NNE visible
28 Dec 4.7 05:33:01 10° S 05:40:55 11° N 05:41:09 10° N visible
